Das Wetter in  D-61279 Heinzenberg / Taunus





Wetter Minimum- & Maximum-Werte im Dezember 2012

Standort: Heinzenberg / Taunus - Höhe 297 m         8° 24' 1" Ost 50° 21' 51" Nord
(   3-stündige Aktualisierung    letzte Aktualisierung um 20:46 am 31.12.2012  )


Messgrösse

Minimum

Maximum

Durchschnitt

Temperatur West /
Luftfeuchte West
Anklicken für Monats-Diagramm

-10,2 °C

02:21
09.12.2012

62 %

19:29
24.12.2012

12,0 °C

17:34
24.12.2012

93 %

00:48
22.12.2012

Temp

2,6 °C

Feuchte

85 %

Temperatur Ost /
Luftfeuchte Ost
Anklicken für Monats-Diagramm

-9,9 °C

02:16
09.12.2012

--

--
--

12,2 °C

17:34
24.12.2012

--

--
--

2,6 °C

--

Luftdruck Anklicken für Monats-Diagramm

996,7 hPa

01:07
15.12.2012

1028,0 hPa

10:42
28.12.2012

1012,6 hPa

Taupunkt

-12,4 °C

02:21
09.12.2012

9,7 °C

05:59
23.12.2012

0,2 °C

Windchill
( gefühlte Temperatur )

-18,7 °C

09:36
09.12.2012

11,0 °C

14:38
29.12.2012

-2,2 °C

Windgeschwindigkeit /
Windrichtung
Anklicken für Monats-Diagramm

---

53,1 km/h / W-SW

14:59
30.12.2012

12,9 km/h
W-SW

Helligkeit /
Sonnenschein
Anklicken für Monats-Diagramm
Anklicken für Monats-Diagramm

Sonnenschein:

29:25 Stunden

Max: 5:25 Std am
08.12.2012

47,2 klux

12:45
26.12.2012

7,5 klux

Solarstrahlung Anklicken für Monats-Diagramm

---

323 W/m²

12:45
26.12.2012

58 W/m²

Regenmenge
    Dezember 2012
Anklicken für Monats-Diagramm

Insgesamt 71,9 l/m²

in 123:32 Stunden
an 26 Tagen

9,6 l/m²

17:26
27.12.2012

Gesamtmenge

71,9 l/m²

Regen-Tage
    Dezember 2012
Anklicken für Monats-Diagramm

>   0 mm/Tag

>   2 mm/Tag

>   5 mm/Tag

> 10 mm/Tag

> 20 mm/Tag

26 Tage     
13 Tage     
5 Tage     
0 Tage     
0 Tage     

Eisige Tage Dezember 2012 / 2011

Tmin ≤ -10°C     

  1 Tag

/

0 Tage

Eistage Dezember 2012 / 2011

Tmax <     0°C     

5 Tage

/

0 Tage

Frosttage Dezember 2012 / 2011

Tmin ≤     0°C     

12 Tage

/

7 Tage

Kalte Tage Dezember 2012 / 2011

Tmax <   10°C     

27 Tage

/

28 Tage

Warme Tage Dezember 2012 / 2011

Tmax ≥   20°C     

0 Tage

/

0 Tage

Sommertage Dezember 2012 / 2011

Tmax ≥   25°C     

0 Tage

/

0 Tage

Heisse Tage Dezember 2012 / 2011

Tmax ≥   30°C     

0 Tage

/

0 Tage


Monatsdiagramm Dezember 2012

Die Kurven zeigen den Durchschnittswert des jeweiligen Tages an


Wetter-Monatsübersicht Dezember 2012
Datum
  Temperatur
   Luftdruck
   Wind
  Regen
   Luftfeuchte
   Helligkeit

Sonnen-
schein

Ø
Temp.

Min.
Temp.

Max.
Temp.

Ø
Luftdruck

Min.
Luftdruck

Max.
Luftdruck

Ø-Geschw.
Haupt-Richtg.

Max.
Wind

Menge /
Dauer

Ø
Feuchte

Min.
Feuchte

Max.
Feuchte

Ø
Helligkeit

Max.
Helligkeit

1.
Dezember
-2,4 °C-6,1 °C
06:49
1,1 °C
13:44
1014,5 hPa1011,9 hPa
22:35
1015,9 hPa
06:49
2,2 km/h
W-SW
21,6 km/h
22:35  
0,2 l/m²
5 Minuten
84 %81 %
22:35
88 %
11:39
13,92 klux46,60 klux
11:39
3:35 Std 
2.
Dezember
0,2 °C-1,1 °C
02:10
1,2 °C
15:40
1011,7 hPa1008,9 hPa
07:35
1016,0 hPa
23:05
14,2 km/h
W-SW
27,5 km/h
19:05  
4,7 l/m²
5:00 Stunden
89 %84 %
00:00
91 %
21:35
5,2 klux17,6 klux
12:45
--- 
3.
Dezember
0,3 °C-0,8 °C
13:40
2,1 °C
23:56
1012,7 hPa1004,4 hPa
23:56
1018,1 hPa
08:40
12,7 km/h
W-SW
26,6 km/h
17:01  
3,2 l/m²
8:30 Stunden
88 %82 %
12:15
91 %
00:00
7,0 klux24,6 klux
11:30
25 Min 
4.
Dezember
2,2 °C0,9 °C
22:52
3,1 °C
13:36
1001,1 hPa999,1 hPa
16:51
1004,4 hPa
00:01
19,2 km/h
W-SW
45,7 km/h
17:31  
1,2 l/m²
7:11 Stunden
87 %80 %
16:06
91 %
00:26
7,3 klux35,2 klux
10:56
45 Min 
5.
Dezember
1,0 °C0,0 °C
23:48
2,1 °C
13:52
1003,2 hPa1000,4 hPa
00:37
1005,7 hPa
23:48
8,0 km/h
W
24,7 km/h
23:03  
8,4 l/m²
13:00 Stunden
91 %89 %
15:17
92 %
07:37
5,9 klux20,1 klux
12:27
--- 
6.
Dezember
-2,4 °C-6,0 °C
22:03
0,1 °C
00:18
1014,1 hPa1005,7 hPa
00:18
1018,9 hPa
20:33
10,4 km/h
W-NW
28,2 km/h
03:48  
---
30 Minuten
87 %84 %
14:48
91 %
00:03
14,4 klux36,0 klux
11:38
3:55 Std 
7.
Dezember
-3,0 °C-6,4 °C
01:13
-2,0 °C
13:13
1008,6 hPa1003,9 hPa
13:18
1017,0 hPa
00:28
11,1 km/h
W-NW
34,0 km/h
08:58  
---
84 %80 %
13:18
89 %
02:48
6,4 klux22,3 klux
09:33
40 Min 
8.
Dezember
-6,0 °C-9,6 °C
23:21
-0,3 °C
15:45
1021,6 hPa1011,3 hPa
00:00
1027,8 hPa
23:21
0,3 km/h
W-NW
10,3 km/h
00:00  
---
83 %74 %
15:50
85 %
00:00
17,5 klux42,0 klux
11:45
5:25 Std 
9.
Dezember
-2,6 °C-10,2 °C
02:21
1,8 °C
21:41
1017,5 hPa1007,6 hPa
23:52
1026,9 hPa
02:21
18,6 km/h
W-NW
47,4 km/h
19:16  
2,3 l/m²
5:41 Stunden
87 %83 %
00:01
91 %
22:42
4,8 klux11,7 klux
12:16
--- 
10.
Dezember
0,8 °C-1,0 °C
22:17
1,7 °C
00:22
1010,4 hPa1005,6 hPa
04:32
1018,3 hPa
23:33
20,1 km/h
W
42,3 km/h
04:42  
3,2 l/m²
9:11 Stunden
88 %77 %
22:17
92 %
01:12
5,0 klux14,7 klux
14:17
15 Min 
11.
Dezember
-2,7 °C-7,1 °C
21:53
-0,6 °C
13:03
1023,6 hPa1018,3 hPa
00:03
1027,4 hPa
21:53
4,9 km/h
NW
18,1 km/h
13:23  
0,9 l/m²
55 Minuten
81 %72 %
15:18
87 %
05:58
10,9 klux36,3 klux
12:03
2:15 Std 
12.
Dezember
-3,5 °C-7,2 °C
23:40
-0,6 °C
14:44
1023,1 hPa1020,1 hPa
22:14
1027,3 hPa
00:09
5,8 km/h
W-SW
24,9 km/h
15:44  
---
78 %71 %
12:44
84 %
00:24
8,3 klux19,4 klux
10:44
30 Min 
13.
Dezember
-5,9 °C-9,1 °C
05:40
-1,9 °C
14:30
1014,2 hPa1010,4 hPa
23:56
1020,3 hPa
00:55
1,5 km/h
O-SO
17,3 km/h
11:10  
0,2 l/m²
5 Minuten
80 %70 %
14:10
85 %
09:55
14,2 klux43,2 klux
11:55
2:50 Std 
14.
Dezember
0,7 °C-3,9 °C
00:01
5,8 °C
20:51
1003,9 hPa996,7 hPa
20:51
1010,4 hPa
00:01
14,9 km/h
O-SO
36,7 km/h
20:31  
4,9 l/m²
5:56 Stunden
87 %85 %
00:01
90 %
08:51
5,1 klux12,3 klux
10:46
--- 
15.
Dezember
6,8 °C5,5 °C
00:02
7,9 °C
11:47
1001,9 hPa996,7 hPa
01:07
1006,0 hPa
19:17
16,1 km/h
W-SW
36,5 km/h
01:02  
---
25 Minuten
85 %81 %
10:57
90 %
00:27
7,6 klux33,2 klux
10:52
1:25 Std 
16.
Dezember
6,2 °C5,3 °C
23:38
7,7 °C
13:38
1006,5 hPa1004,9 hPa
00:53
1008,0 hPa
10:08
12,8 km/h
W-SW
30,1 km/h
04:58  
1,7 l/m²
3:50 Stunden
85 %81 %
13:53
88 %
07:33
5,8 klux25,0 klux
13:18
20 Min 
17.
Dezember
5,4 °C4,1 °C
07:18
6,9 °C
13:38
1006,4 hPa1005,9 hPa
13:38
1008,2 hPa
23:19
7,6 km/h
W-SW
27,5 km/h
20:38  
4,9 l/m²
6:40 Stunden
88 %85 %
00:03
91 %
22:39
6,5 klux40,9 klux
12:38
25 Min 
18.
Dezember
4,2 °C2,7 °C
21:24
6,5 °C
12:54
1014,2 hPa1008,2 hPa
00:04
1020,9 hPa
23:50
4,3 km/h
W
20,4 km/h
01:24  
0,3 l/m²
1:11 Stunden
88 %80 %
13:04
90 %
00:04
9,1 klux43,1 klux
11:59
1:25 Std 
19.
Dezember
3,3 °C2,2 °C
08:10
4,5 °C
15:30
1023,5 hPa1020,9 hPa
01:15
1025,0 hPa
11:20
2,0 km/h
O-SO
22,2 km/h
20:10  
---
15 Minuten
90 %86 %
22:15
92 %
13:10
6,1 klux13,9 klux
13:00
--- 
20.
Dezember
1,2 °C0,3 °C
23:17
3,0 °C
00:01
1017,3 hPa1011,9 hPa
21:31
1024,0 hPa
00:01
17,0 km/h
O-SO
33,4 km/h
12:21  
2,1 l/m²
4:26 Stunden
84 %80 %
12:46
88 %
00:01
7,1 klux23,4 klux
12:11
5 Min 
21.
Dezember
1,2 °C0,3 °C
01:07
2,8 °C
23:43
1012,8 hPa1009,8 hPa
05:12
1017,8 hPa
22:17
1,4 km/h
O-SO
16,8 km/h
01:47  
5,2 l/m²
10:45 Stunden
91 %88 %
00:02
92 %
12:02
2,7 klux6,7 klux
14:27
--- 
22.
Dezember
5,1 °C2,7 °C
00:03
6,4 °C
12:38
1015,9 hPa1010,3 hPa
23:34
1018,7 hPa
01:33
10,2 km/h
W-SW
31,3 km/h
19:53  
6,4 l/m²
9:05 Stunden
90 %85 %
15:18
93 %
00:48
6,39 klux16,60 klux
12:03
--- 
23.
Dezember
10,3 °C5,2 °C
00:04
11,8 °C
15:03
1008,1 hPa1005,4 hPa
05:59
1010,7 hPa
23:59
25,1 km/h
W-SW
43,7 km/h
16:08  
9,0 l/m²
11:45 Stunden
89 %84 %
14:18
93 %
03:39
0,5 klux1,2 klux
14:28
--- 
24.
Dezember
10,5 °C8,0 °C
02:54
12,0 °C
17:34
1007,7 hPa1004,2 hPa
17:34
1010,9 hPa
02:54
17,7 km/h
W-SW
41,3 km/h
17:19  
0,2 l/m²
10 Minuten
78 %62 %
19:29
92 %
03:39
7,89 klux22,90 klux
12:29
5 Min 
25.
Dezember
8,9 °C7,2 °C
13:55
10,9 °C
11:30
1003,5 hPa1001,3 hPa
10:25
1006,7 hPa
23:55
22,0 km/h
W-SW
45,7 km/h
12:20  
1,1 l/m²
2:30 Stunden
77 %72 %
00:00
88 %
13:35
2,8 klux7,2 klux
14:25
--- 
26.
Dezember
6,6 °C5,4 °C
11:05
8,2 °C
00:00
1009,8 hPa1006,7 hPa
00:00
1012,2 hPa
17:25
26,1 km/h
W-SW
44,8 km/h
12:50  
2,3 l/m²
5:00 Stunden
83 %75 %
00:00
88 %
02:45
6,43 klux47,20 klux
12:45
50 Min 
27.
Dezember
6,4 °C4,9 °C
23:52
7,7 °C
13:26
1006,5 hPa1002,8 hPa
17:11
1013,4 hPa
23:52
22,8 km/h
W-SW
48,6 km/h
01:51  
9,6 l/m²
8:11 Stunden
85 %78 %
00:01
90 %
17:46
4,3 klux18,0 klux
11:31
--- 
28.
Dezember
4,8 °C2,4 °C
08:22
6,4 °C
14:02
1024,3 hPa1013,4 hPa
00:02
1028,0 hPa
10:42
7,2 km/h
W-SW
30,3 km/h
19:17  
0,2 l/m²
45 Minuten
88 %82 %
16:37
92 %
11:12
6,2 klux33,6 klux
13:22
35 Min 
29.
Dezember
8,2 °C6,2 °C
00:03
11,3 °C
14:23
1018,1 hPa1012,8 hPa
17:18
1024,6 hPa
00:03
13,6 km/h
W-SW
30,3 km/h
16:53  
---
81 %66 %
23:44
89 %
01:58
15,7 klux45,6 klux
11:33
3:20 Std 
30.
Dezember
7,0 °C6,0 °C
08:19
9,0 °C
00:04
1016,8 hPa1012,8 hPa
00:04
1020,4 hPa
21:29
27,5 km/h
W-SW
53,1 km/h
14:59  
0,2 l/m²
2:30 Stunden
72 %66 %
00:04
81 %
08:24
5,8 klux31,2 klux
10:49
20 Min 
31.
Dezember
6,9 °C6,2 °C
21:05
7,7 °C
12:00
1016,5 hPa1009,0 hPa
22:56
1020,4 hPa
05:10
21,5 km/h
W-SW
39,4 km/h
01:25  
---
76 %72 %
23:26
80 %
06:45
5,1 klux19,2 klux
11:45
--- 



Dezember
2012

Temperatur

  

Luftdruck

  

Wind

  

Regen

  

Luftfeuchte

  

Helligkeit

Sonnen-
schein

Ø

Min

Max

Ø

Min

Max

Ø

Max

Max

Ø

Min

Max

Ø

Max

Max

2,6 °C

-10,2 °C

02:21 Uhr
09.12.2012

12,0 °C

17:34 Uhr
24.12.2012

1012,6 hPa

996,7 hPa

01:07 Uhr
15.12.2012

1028,0 hPa

10:42 Uhr
28.12.2012

12,9 km/h

W-SW

53,1 km/h

14:59 Uhr
30.12.2012

9,6 l/m²

8:11 Stunden
27.12.2012

85 %

62 %

19:29 Uhr
24.12.2012

93 %

00:48 Uhr
22.12.2012

7,5 klux

47,20 klux

12:45 Uhr
26.12.2012

5:25 Std

am
08.12.2012

Gesamt

Gesamt

71,9 l/m²

26 Tage
123:32 h

29:25 Std


Wetter-Diagramme Dezember 2012     Heinzenberg / Taunus   
TemperaturLuftfeuchte
SolarstrahlungLuftdruck
HelligkeitSonnenschein
RegenmengeRegendauer
Wind-GeschwindigkeitWind-Richtung